Regional Weather Roundup
Issued by NWS

Home | Current Version | Previous Version | Text Only | Print | Product List | Glossary Off
Versions: 1 2 3 4 5 6 7 8 9 10 11 12 13 14 15 16 17 18 19 20 21 22 23 24 25 26 27 28 29 30 31 32 33 34 35 36 37 38 39 40 41 42 43 44 45 46 47 48 49 50

000
ASUS43 KOAX 020010
RWRNE

WEATHER ROUNDUP FOR NEBRASKA
NATIONAL WEATHER SERVICE OMAHA NE
600 PM CST THU DEC 01 2016

NOTES: SATELLITE DATA IS BEING USED TO AUGMENT CLOUD COVER ABOVE
       12000 FEET.
       "FAIR" INDICATES FEW OR NO CLOUDS BELOW 12,000 FEET WITH NO
       SIGNIFICANT WEATHER AND/OR OBSTRUCTIONS TO VISIBILITY.

  * THESE STATIONS DO NOT REPORT WEATHER SUCH AS RAIN...SNOW OR FOG.

NEZ001>004-019>022-054>056-020100-
NEBRASKA PANHANDLE

CITY           SKY/WX    TMP DP  RH WIND       PRES   REMARKS
SCOTTSBLUFF    PTCLDY    33  12  41 CALM      29.95R
6HR MIN TEMP:  32; 6HR MAX TEMP:  44;

ALLIANCE       CLOUDY    31  15  52 NW5       29.94R WCI  26
6HR MIN TEMP:  31; 6HR MAX TEMP:  42;

CHADRON        CLOUDY    35  21  56 W12       29.96R WCI  27
6HR MIN TEMP:  35; 6HR MAX TEMP:  44;

KIMBALL        CLOUDY    30  19  64 NW6       29.94R WCI  24
SIDNEY         CLEAR     28  11  48 NE6       29.94S WCI  22
6HR MIN TEMP:  28; 6HR MAX TEMP:  41;

$$

NEZ057>060-069>072-079>082-020100-
SOUTHWEST NEBRASKA

CITY           SKY/WX    TMP DP  RH WIND       PRES   REMARKS
NORTH PLATTE   CLEAR     30  16  56 CALM      29.95S
6HR MIN TEMP:  30; 6HR MAX TEMP:  46;

IMPERIAL       CLEAR     35  13  40 NW9       29.96R WCI  28
6HR MIN TEMP:  35; 6HR MAX TEMP:  47;

LEXINGTON      CLEAR     36  18  49 CALM      29.97R
MCCOOK         CLEAR     38  16  40 S6        29.97R WCI  33
6HR MIN TEMP:  34; 6HR MAX TEMP:  46;

OGALLALA       CLEAR     27  14  58 CALM      29.96R
$$

NEZ005>010-023>029-035>040-094-020100-
NORTH CENTRAL NEBRASKA

CITY           SKY/WX    TMP DP  RH WIND       PRES   REMARKS
VALENTINE      CLOUDY    29  21  72 N3        29.99R
6HR MIN TEMP:  29; 6HR MAX TEMP:  36;

AINSWORTH      CLOUDY    29  24  84 NE6       29.99R WCI  23
BROKEN BOW     CLOUDY    35  22  58 E5        29.96R WCI  31
6HR MIN TEMP:  35; 6HR MAX TEMP:  45;

O`NEILL        CLOUDY    32  26  80 NW3       30.01R
ORD            CLOUDY    34  22  61 NE6       29.99R WCI  29
6HR MIN TEMP:  34; 6HR MAX TEMP:  41;

THEDFORD       CLOUDY    36  19  48 CALM      29.96R
$$

NEZ041-046>049-061>064-073>077-083>087-020100-
SOUTH CENTRAL NEBRASKA

CITY           SKY/WX    TMP DP  RH WIND       PRES   REMARKS
GRAND ISLAND   PTCLDY    33  25  72 CALM      30.00R
6HR MIN TEMP:  33; 6HR MAX TEMP:  43;

AURORA         CLOUDY    32  25  74 NE3       30.00S
HASTINGS       CLEAR     34  22  61 CALM      30.00R
6HR MIN TEMP:  34; 6HR MAX TEMP:  43;

HEBRON         PTCLDY    35  22  60 CALM      30.01S
HOLDREGE       CLEAR     34  18  52 SW3       29.97S
KEARNEY *      CLEAR     37  19  48 CALM      29.98S
YORK           CLOUDY    34  25  69 CALM      30.02R
$$

NEZ011>018-030>034-042>045-020100-
NORTHEAST NEBRASKA

CITY           SKY/WX    TMP DP  RH WIND       PRES   REMARKS
NORFOLK        CLOUDY    31  24  75 NW3       30.01R
6HR MIN TEMP:  31; 6HR MAX TEMP:  35;

ALBION         CLOUDY    32  24  72 N5        30.01R WCI  27
BLAIR          CLOUDY    36  28  74 CALM      30.02R
FREMONT        CLOUDY    35  29  79 CALM      30.03R
TEKAMAH        CLOUDY    35  28  75 NW5       30.04R WCI  31
6HR MIN TEMP:  35; 6HR MAX TEMP:  37;

WAYNE          CLOUDY    33  28  85 NW5       30.03R WCI  28
$$

NEZ050>053-065>068-078-088>093-020100-
SOUTHEAST NEBRASKA

CITY           SKY/WX    TMP DP  RH WIND       PRES   REMARKS
LINCOLN        PTCLDY    34  25  69 N3        30.04R
6HR MIN TEMP:  34; 6HR MAX TEMP:  43;

OMAHA EPPLEY   CLOUDY    37  27  67 N3        30.04R
6HR MIN TEMP:  36; 6HR MAX TEMP:  38;

BEATRICE       PTCLDY    32  24  73 N5        30.02R WCI  27
FALLS CITY     PTCLDY    37  25  61 W3        30.03R
6HR MIN TEMP:  35; 6HR MAX TEMP:  42;

NEBRASKA CITY  CLOUDY    34  24  65 NE3       30.03R
PLATTSMOUTH    PTCLDY    33  24  68 CALM      30.03R
$$

NEZ044-045-051>053-067-020100-
OMAHA AREA

CITY           SKY/WX    TMP DP  RH WIND       PRES   REMARKS
OMAHA EPPLEY   CLOUDY    37  27  67 N3        30.04R
6HR MIN TEMP:  36; 6HR MAX TEMP:  38;

BLAIR          CLOUDY    36  28  74 CALM      30.02R
FREMONT        CLOUDY    35  29  79 CALM      30.03R
MILLARD        MOCLDY    36  27  70 CALM      30.03S
OFFUTT AFB     CLOUDY    33  28  82 NW2       30.03R
PLATTSMOUTH    PTCLDY    33  24  68 CALM      30.03R
WAHOO          FAIR      32  26  76 N3        30.03R
$$




USA.gov is the U.S. government's official web portal to all federal, state and local government web resources and services.